DL1NER Weather Reports


Display with metric or nautical units.
time (UTC)temp
F
wind
direction
speed
MPH
gust
MPH
rain 1hr
in
rain 24hr
in
rain mn
in
humidity
%
barometer
mb
20201024222022 42 184 0.0 0.0 0.00 0.00 0.00 85 1016.9
20201024220021 43 184 0.0 2.0 0.00 0.00 0.00 85 1017.1
20201024210023 44 184 0.0 0.0 0.00 0.01 0.01 84 1017.6
20201024205011 44 184 0.0 1.0 0.00 0.01 0.01 84 1017.6
20201024201023 45 184 1.0 2.0 0.00 0.01 0.01 84 1017.6
20201024200026 46 184 1.0 2.0 0.00 0.01 0.01 85 1017.8
20201024195020 46 196 0.0 1.0 0.00 0.01 0.01 84 1017.7
20201024194011 46 196 1.0 2.0 0.00 0.01 0.01 84 1017.7
20201024193020 46 196 1.0 2.0 0.00 0.01 0.01 84 1017.7
20201024191027 47 196 1.0 3.0 0.00 0.01 0.01 84 1017.7
20201024190040 47 196 2.0 2.0 0.00 0.01 0.01 83 1017.8
20201024183020 47 196 0.0 0.0 0.00 0.01 0.01 81 1017.8
20201024182011 48 196 0.0 0.0 0.00 0.01 0.01 81 1017.8
20201024181025 48 196 0.0 0.0 0.00 0.01 0.01 80 1017.8
20201024180024 49 196 0.0 0.0 0.00 0.01 0.01 81 1017.8
20201024175012 49 196 0.0 0.0 0.00 0.01 0.01 80 1017.8
20201024174018 50 196 0.0 2.0 0.00 0.01 0.01 80 1017.8
20201024170024 52 196 0.0 0.0 0.00 0.01 0.01 77 1017.4
20201024165011 53 196 0.0 1.0 0.00 0.01 0.01 76 1017.4
20201024155020 58 232 2.0 4.0 0.00 0.01 0.01 69 1017.3
20201024153019 59 242 3.0 5.0 0.00 0.01 0.01 66 1017.4
20201024150020 60 214 3.0 6.0 0.00 0.01 0.01 65 1017.7
20201024145025 60 235 2.0 5.0 0.00 0.01 0.01 66 1017.6
20201024142025 61 243 4.0 8.0 0.00 0.01 0.01 64 1017.7
20201024141013 61 214 4.0 8.0 0.00 0.01 0.01 64 1017.7
20201024135012 62 214 4.0 11.0 0.00 0.01 0.01 62 1017.9
20201024132015 62 236 4.0 9.0 0.00 0.01 0.01 61 1018.0
20201024131010 62 190 4.0 8.0 0.00 0.01 0.01 63 1018.1
20201024130026 61 209 4.0 11.0 0.00 0.01 0.01 64 1018.2
20201024123020 62 238 7.0 12.0 0.00 0.01 0.01 64 1018.6
20201024120023 62 228 6.0 14.0 0.00 0.01 0.01 66 1018.8
20201024115010 61 175 5.0 10.0 0.00 0.01 0.01 70 1018.7
20201024113018 59 209 4.0 8.0 0.00 0.01 0.01 70 1018.9
20201024112010 60 196 4.0 9.0 0.00 0.01 0.01 72 1019.0
20201024111015 61 234 4.0 13.0 0.00 0.01 0.01 69 1019.1
20201024110030 62 234 9.0 14.0 0.00 0.01 0.01 67 1019.2
20201024103016 60 184 6.0 12.0 0.00 0.01 0.01 70 1019.3
20201024102012 60 205 6.0 12.0 0.00 0.01 0.01 74 1019.3
20201024101012 59 252 5.0 12.0 0.00 0.01 0.01 73 1019.3
20201024095013 58 226 5.0 10.0 0.00 0.01 0.01 75 1019.4
20201024092010 57 245 6.0 11.0 0.00 0.01 0.01 77 1019.2
20201024091010 57 181 4.0 8.0 0.00 0.01 0.01 79 1019.1
20201024090028 56 193 3.0 8.0 0.00 0.01 0.01 82 1019.0
20201024085025 56 224 4.0 9.0 0.00 0.01 0.01 83 1019.1
20201024084034 55 254 3.0 10.0 0.00 0.01 0.01 85 1019.0
20201024083032 55 209 5.0 11.0 0.00 0.01 0.01 85 1019.0
20201024082054 54 223 5.0 11.0 0.00 0.01 0.01 86 1018.9
20201024081033 54 238 4.0 11.0 0.00 0.01 0.01 88 1018.9
20201024074025 53 222 2.0 5.0 0.00 0.01 0.01 88 1018.6
20201024073024 53 214 2.0 5.0 0.00 0.01 0.01 88 1018.7
20201024065025 51 233 1.0 4.0 0.00 0.01 0.01 88 1018.4
20201024064025 51 234 1.0 3.0 0.00 0.01 0.01 88 1018.3
20201024062025 50 259 0.0 2.0 0.00 0.01 0.01 87 1018.2
20201024060027 50 259 0.0 0.0 0.00 0.01 0.01 87 1018.0
20201024054025 50 259 0.0 0.0 0.00 0.01 0.01 87 1017.7
20201024052024 51 259 0.0 1.0 0.00 0.01 0.01 87 1017.6
20201024045024 51 259 0.0 0.0 0.00 0.01 0.01 88 1017.5
20201024044030 51 259 1.0 4.0 0.00 0.01 0.01 87 1017.4
20201024042025 50 255 1.0 4.0 0.00 0.01 0.01 87 1017.3
20201024041027 50 247 2.0 4.0 0.00 0.01 0.01 86 1017.3
20201024034032 51 247 0.0 0.0 0.00 0.01 0.01 86 1016.7
20201024032026 52 247 1.0 2.0 0.00 0.01 0.01 86 1016.4
20201024031031 52 247 1.0 2.0 0.00 0.01 0.01 86 1016.5
20201024030026 52 247 0.0 2.0 0.00 0.01 0.01 87 1016.4
20201024024026 53 247 1.0 4.0 0.00 0.01 0.01 86 1016.2
20201024022025 53 247 1.0 2.0 0.00 0.01 0.01 87 1016.1
20201024021025 53 247 2.0 4.0 0.00 0.01 0.01 87 1016.1
20201024013035 54 232 1.0 3.0 0.00 0.01 0.01 86 1016.1
20201024012029 54 232 1.0 2.0 0.00 0.01 0.01 86 1016.1
20201024011028 54 231 1.0 3.0 0.00 0.01 0.01 86 1016.1
20201024004030 55 230 1.0 3.0 0.00 0.01 0.01 87 1015.9
20201024001024 55 246 1.0 3.0 0.00 0.01 0.01 87 1015.8
20201023234027 55 246 1.0 4.0 0.00 0.01 0.01 86 1015.7
20201023233034 55 244 2.0 5.0 0.00 0.01 0.01 86 1015.6
20201023231029 55 239 2.0 4.0 0.00 0.01 0.01 86 1015.6
20201023224026 55 244 3.0 4.0 0.01 0.01 0.01 86 1015.6